Tracking 28790 objects as of 19-Apr-2024
HD Live streaming from Space Station
objects crossing your sky now

OBJECT C

Track OBJECT C now!
10-day predictions


NORAD ID: 53301
Int'l Code: 2022-087C
Perigee: 454.3 km
Apogee: 470.0 km
Inclination: 97.3 °
Period: 93.7 minutes
Semi major axis: 6833 km
RCS: Unknown
Launch date: July 27, 2022
Source: People's Republic of China (PRC)
Launch site: Jiuquan Satellite Launch Center, China (JSC)

Note: This is a ROCKET BODY
Your satellite tracking list
Your tracking list is empty




NASA's NSSDC Master Catalog

Two Line Element Set (TLE):
1 53301U 22087C   24110.52247783  .00034449  00000-0  94946-3 0  9996
2 53301  97.3303 187.5623 0011454 204.6999 155.3698 15.36983535 96544
Source of the keplerian elements: AFSPC